Weather History for Aurora, NE

Change the Weather History Date:

Sunday, December 9, 2012

  Actual Average Record
Temperature  
Mean Temperature 22 °F -  
Max Temperature 37 °F 38 °F 65 °F (1984)
Min Temperature 8 °F 17 °F -8 °F (1978)
Degree Days  
Heating Degree Days 42    
Moisture  
Dew Point 10 °F    
Average Humidity 59    
Maximum Humidity 85    
Minimum Humidity 41    
Precipitation  
Precipitation 0.00 in - - ()
Sea Level Pressure  
Sea Level Pressure 30.02 in    
Wind  
Wind Speed 20 mph (NW)    
Max Wind Speed 34 mph    
Max Gust Speed 43 mph    
Visibility 10 miles    
Events      
Averages and records for this station are not official NWS values.
T = Trace of Precipitation, MM = Missing Value Source: NWS Daily Summary

Daily Weather History Graph

Daily Weather History Graph

Search for Another Location

Airport:

Trip Planner

Search our weather history database for the weather conditions in past years. The results will help you decide how hot, cold, wet, or windy it might be!

Date:

Astronomy

Dec. 09, 2012 Rise Set
Actual Time 7:45 AM CST 5:03 PM CST
Civil Twilight 7:14 AM CST 5:34 PM CST
Nautical Twilight 6:39 AM CST 6:09 PM CST
Astronomical Twilight 6:06 AM CST 6:42 PM CST
Moon 3:18 AM CST (12/9) 2:12 PM CST (12/9)
Length of Visible Light 10h 20m
Length of Day
9h 18m
Waning Crescent, 18% of the Moon is Illuminated
Dec 9
Waning Crescent
Dec 13
New
Dec 19
First Quarter
Dec 28
Full
Jan 4
Last Quarter

Hourly Weather History & Observations

Time (CST) Temp. Windchill Dew Point Humidity Pressure Visibility Wind Dir Wind Speed Gust Speed Precip Events Conditions
12:15 AM 36.1 °F 29.3 °F 32.0 °F 85% 29.82 in 7.0 mi South 9.2 mph - N/A   Overcast
12:35 AM 36.1 °F 29.9 °F 31.8 °F 84% 29.82 in 7.0 mi SSW 8.1 mph - N/A   Overcast
12:55 AM 36.1 °F 29.9 °F 31.8 °F 84% 29.84 in 7.0 mi SSW 8.1 mph - N/A   Overcast
1:15 AM 36.0 °F 29.0 °F 31.5 °F 84% 29.83 in 7.0 mi SW 9.2 mph - N/A   Overcast
1:35 AM 35.6 °F 28.6 °F 31.1 °F 84% 29.84 in 7.0 mi WSW 9.2 mph - N/A   Overcast
1:55 AM 35.6 °F 29.2 °F 30.7 °F 82% 29.83 in 7.0 mi West 8.1 mph - N/A   Overcast
2:15 AM 37.4 °F 29.3 °F 28.8 °F 71% 29.82 in 10.0 mi West 12.7 mph 17.3 mph N/A   Overcast
2:35 AM 37.4 °F 28.5 °F 27.3 °F 67% 29.83 in 10.0 mi WNW 15.0 mph - N/A   Overcast
2:55 AM 37.0 °F 27.7 °F 26.6 °F 66% 29.84 in 10.0 mi WNW 16.1 mph 21.9 mph N/A   Overcast
3:15 AM 36.7 °F 28.0 °F 25.7 °F 64% 29.83 in 10.0 mi NW 13.8 mph - N/A   Overcast
3:35 AM 36.1 °F 27.7 °F 25.3 °F 65% 29.83 in 10.0 mi NW 12.7 mph - N/A   Overcast
3:55 AM 35.8 °F 27.3 °F 25.3 °F 66% 29.84 in 10.0 mi WNW 12.7 mph - N/A   Overcast
4:15 AM 35.6 °F 26.6 °F 25.3 °F 66% 29.84 in 10.0 mi WNW 13.8 mph - N/A   Overcast
4:35 AM 35.8 °F 26.1 °F 25.2 °F 65% 29.84 in 10.0 mi WNW 16.1 mph - N/A   Overcast
4:55 AM 35.4 °F 24.9 °F 25.0 °F 66% 29.85 in 10.0 mi NW 18.4 mph 21.9 mph N/A   Overcast
5:15 AM 33.1 °F 21.5 °F 21.4 °F 62% 29.89 in 10.0 mi NW 19.6 mph 32.2 mph N/A   Overcast
5:35 AM 31.8 °F 17.6 °F 19.8 °F 61% 29.89 in 10.0 mi NW 28.8 mph 36.8 mph N/A   Overcast
5:55 AM 29.8 °F 16.6 °F 18.3 °F 62% 29.91 in 10.0 mi NW 21.9 mph 27.6 mph N/A   Overcast
6:15 AM 26.6 °F 10.3 °F 14.4 °F 60% 29.92 in 10.0 mi NW 29.9 mph 33.4 mph N/A   Overcast
6:35 AM 25.3 °F 10.7 °F 13.1 °F 60% 29.93 in 10.0 mi NW 21.9 mph 31.1 mph N/A   Mostly Cloudy
6:55 AM 24.1 °F 9.0 °F 11.8 °F 60% 29.96 in 10.0 mi NW 21.9 mph 29.9 mph N/A   Scattered Clouds
7:15 AM 22.3 °F 5.6 °F 10.2 °F 60% 29.97 in 10.0 mi WNW 25.3 mph 29.9 mph N/A   Scattered Clouds
7:35 AM 20.5 °F 3.9 °F 9.1 °F 62% 29.97 in 10.0 mi NW 23.0 mph - N/A   Clear
7:55 AM 20.1 °F 3.1 °F 8.4 °F 61% 29.97 in 10.0 mi NW 24.2 mph 31.1 mph N/A   Scattered Clouds
8:15 AM 19.9 °F 3.2 °F 8.2 °F 61% 29.99 in 10.0 mi NW 23.0 mph 27.6 mph N/A   Scattered Clouds
8:35 AM 19.9 °F 1.5 °F 7.2 °F 58% 29.99 in 10.0 mi NW 28.8 mph 34.5 mph N/A   Clear
8:55 AM 19.0 °F 0.6 °F 5.7 °F 56% 30.01 in 10.0 mi NW 27.6 mph 33.4 mph N/A   Clear
9:15 AM 17.6 °F -1.0 °F 4.1 °F 56% 30.01 in 10.0 mi NW 26.5 mph 33.4 mph N/A   Clear
9:35 AM 19.2 °F -0.3 °F 4.6 °F 53% 30.03 in 10.0 mi NW 32.2 mph 35.7 mph N/A   Clear
9:55 AM 18.5 °F -0.1 °F 3.9 °F 53% 30.04 in 10.0 mi NW 27.6 mph 39.1 mph N/A   Clear
10:35 AM 19.6 °F -0.3 °F 4.1 °F 51% 30.03 in 10.0 mi NW 34.5 mph 41.4 mph N/A   Clear
10:55 AM 20.5 °F 2.0 °F 4.1 °F 49% 30.05 in 10.0 mi NW 29.9 mph 36.8 mph N/A   Clear
11:15 AM 21.4 °F 3.2 °F 4.1 °F 47% 30.05 in 10.0 mi NW 29.9 mph 36.8 mph N/A   Clear
11:35 AM 21.9 °F 3.4 °F 3.9 °F 46% 30.05 in 10.0 mi NNW 32.2 mph 36.8 mph N/A   Clear
11:55 AM 22.1 °F 3.4 °F 3.6 °F 45% 30.04 in 10.0 mi NW 33.4 mph 39.1 mph N/A   Clear
12:15 PM 22.8 °F 5.7 °F 3.9 °F 44% 30.05 in 10.0 mi NNW 27.6 mph 39.1 mph N/A   Clear
12:35 PM 23.0 °F 5.1 °F 3.4 °F 43% 30.04 in 10.0 mi NW 31.1 mph 38.0 mph N/A   Clear
12:55 PM 22.8 °F 4.1 °F 3.2 °F 43% 30.05 in 10.0 mi NNW 34.5 mph 41.4 mph N/A   Clear
1:15 PM 23.0 °F 4.9 °F 3.2 °F 43% 30.04 in 10.0 mi NW 32.2 mph 38.0 mph N/A   Clear
1:35 PM 23.5 °F 5.6 °F 3.0 °F 41% 30.03 in 10.0 mi NNW 32.2 mph 40.3 mph N/A   Scattered Clouds
1:55 PM 22.8 °F 4.4 °F 2.5 °F 42% 30.04 in 10.0 mi NW 33.4 mph 40.3 mph N/A   Overcast
2:15 PM 23.0 °F 4.4 °F 2.5 °F 41% 30.05 in 10.0 mi NW 34.5 mph 41.4 mph N/A   Overcast
2:35 PM 21.6 °F 2.9 °F 2.3 °F 43% 30.05 in 10.0 mi NW 32.2 mph 38.0 mph N/A   Overcast
2:55 PM 20.5 °F 2.9 °F 2.7 °F 46% 30.06 in 10.0 mi NW 26.5 mph 39.1 mph N/A   Overcast
3:15 PM 19.4 °F 0.2 °F 2.5 °F 48% 30.08 in 10.0 mi NW 31.1 mph 39.1 mph N/A   Overcast
3:35 PM 19.0 °F -0.3 °F 3.0 °F 50% 30.08 in 10.0 mi NW 31.1 mph 35.7 mph N/A   Overcast
3:55 PM 18.7 °F -1.3 °F 3.4 °F 51% 30.09 in 10.0 mi NNW 33.4 mph 41.4 mph N/A   Overcast
4:15 PM 18.5 °F -1.5 °F 3.2 °F 51% 30.10 in 10.0 mi NNW 33.4 mph 40.3 mph N/A   Overcast
4:35 PM 18.3 °F -0.6 °F 3.7 °F 53% 30.10 in 10.0 mi NNW 28.8 mph 42.6 mph N/A   Overcast
4:55 PM 18.1 °F -0.9 °F 4.1 °F 54% 30.11 in 10.0 mi NW 28.8 mph 33.4 mph N/A   Overcast
5:15 PM 18.0 °F -0.5 °F 3.9 °F 54% 30.12 in 10.0 mi NNW 26.5 mph 34.5 mph N/A   Overcast
5:35 PM 17.6 °F -1.6 °F 4.6 °F 57% 30.13 in 10.0 mi NNW 28.8 mph 35.7 mph N/A   Overcast
5:55 PM 17.6 °F 0.1 °F 4.6 °F 57% 30.14 in 10.0 mi NNW 23.0 mph 31.1 mph N/A   Overcast
6:15 PM 16.7 °F -2.8 °F 3.9 °F 57% 30.15 in 10.0 mi NNW 28.8 mph 34.5 mph N/A   Overcast
6:35 PM 16.2 °F -3.6 °F 3.7 °F 58% 30.15 in 10.0 mi NNW 28.8 mph 36.8 mph N/A   Overcast
6:55 PM 15.4 °F -2.4 °F 3.2 °F 59% 30.16 in 10.0 mi NNW 21.9 mph 29.9 mph N/A   Overcast
7:15 PM 14.9 °F -5.6 °F 2.7 °F 58% 30.16 in 10.0 mi NNW 29.9 mph 35.7 mph N/A   Overcast
7:35 PM 14.2 °F -5.6 °F 1.9 °F 58% 30.17 in 10.0 mi NNW 26.5 mph 31.1 mph N/A   Mostly Cloudy
7:55 PM 14.9 °F -4.6 °F 1.4 °F 55% 30.18 in 10.0 mi NNW 26.5 mph 33.4 mph N/A   Overcast
8:15 PM 14.9 °F -3.1 °F 1.2 °F 55% 30.18 in 10.0 mi NNW 21.9 mph 28.8 mph N/A   Overcast
8:35 PM 14.4 °F -5.3 °F 0.5 °F 54% 30.18 in 10.0 mi NNW 26.5 mph 33.4 mph N/A   Overcast
8:55 PM 14.0 °F -6.5 °F -0.0 °F 54% 30.18 in 10.0 mi NNW 28.8 mph 33.4 mph N/A   Mostly Cloudy
9:15 PM 12.4 °F -7.6 °F -0.4 °F 57% 30.18 in 10.0 mi NNW 25.3 mph 35.7 mph N/A   Scattered Clouds
9:35 PM 11.8 °F -6.7 °F 0.3 °F 60% 30.18 in 10.0 mi NNW 20.7 mph 31.1 mph N/A   Clear
9:55 PM 11.3 °F -7.0 °F 0.3 °F 61% 30.18 in 10.0 mi NNW 19.6 mph 24.2 mph N/A   Clear
10:15 PM 11.1 °F -8.9 °F 0.3 °F 62% 30.18 in 10.0 mi NNW 24.2 mph 29.9 mph N/A   Clear
10:35 PM 10.6 °F -8.8 °F 0.3 °F 63% 30.18 in 10.0 mi NNW 21.9 mph 27.6 mph N/A   Clear
10:55 PM 10.2 °F -8.4 °F 0.3 °F 64% 30.18 in 10.0 mi NNW 19.6 mph 26.5 mph N/A   Clear
11:15 PM 9.3 °F -9.1 °F 0.1 °F 66% 30.17 in 10.0 mi NW 18.4 mph - N/A   Clear
11:35 PM 8.6 °F -10.0 °F -0.0 °F 68% 30.17 in 10.0 mi NW 18.4 mph - N/A   Clear
11:55 PM 8.4 °F -8.6 °F -0.0 °F 68% 30.16 in 10.0 mi NW 15.0 mph - N/A   Clear